KE7YUP Weather Reports


time (UTC)temp
C
wind
direction
speed
KPH
gust
KPH
rain 1hr
cm
rain 24hr
cm
rain mn
cm
humidity
%
barometer
mb
20260510231416 24 72 4.8 8.0 0.00 0.00 0.00 15 1023.0
20260510230416 25 119 6.4 12.9 0.00 0.00 0.00 15 1023.0
20260510225416 25 93 9.7 16.1 0.00 0.00 0.00 15 1023.1
20260510224416 25 127 8.0 14.5 0.00 0.00 0.00 15 1023.2
20260510223416 25 146 8.0 12.9 0.00 0.00 0.00 15 1023.3
20260510222416 24 33 4.8 6.4 0.00 0.00 0.00 15 1023.0
20260510221416 24 90 11.3 14.5 0.00 0.00 0.00 15 1023.1
20260510220416 25 150 8.0 14.5 0.00 0.00 0.00 15 1023.6
20260510215416 24 38 8.0 12.9 0.00 0.00 0.00 15 1023.5
20260510214416 24 113 4.8 12.9 0.00 0.00 0.00 15 1023.7
20260510213416 23 65 6.4 16.1 0.00 0.00 0.00 15 1023.8
20260510212416 23 102 6.4 14.5 0.00 0.00 0.00 16 1023.9
20260510211416 23 103 3.2 8.0 0.00 0.00 0.00 16 1024.4
20260510210416 23 156 6.4 9.7 0.00 0.00 0.00 16 1024.5
20260510205416 23 109 9.7 14.5 0.00 0.00 0.00 17 1024.6
20260510204416 23 152 11.3 19.3 0.00 0.00 0.00 16 1025.1
20260510203416 23 82 9.7 12.9 0.00 0.00 0.00 16 1025.2
20260510202416 23 89 3.2 17.7 0.00 0.00 0.00 16 1025.3
20260510201416 22 90 3.2 6.4 0.00 0.00 0.00 16 1026.0
20260510200456 23 94 14.5 19.3 0.00 0.00 0.00 16 1026.3
20260510195416 22 164 8.0 16.1 0.00 0.00 0.00 18 1026.3
20260510194416 22 92 1.6 4.8 0.00 0.00 0.00 19 1025.6
20260510193416 22 117 1.6 6.4 0.00 0.00 0.00 19 1025.8
20260510192416 22 116 11.3 14.5 0.00 0.00 0.00 20 1025.9
20260510191416 22 184 4.8 9.7 0.00 0.00 0.00 18 1025.9
20260510190436 22 148 8.0 12.9 0.00 0.00 0.00 20 1025.8
20260510185416 21 56 0.0 1.6 0.00 0.00 0.00 19 1025.8
20260510184415 21 131 11.3 16.1 0.00 0.00 0.00 21 1025.9
20260510183416 21 85 9.7 16.1 0.00 0.00 0.00 21 1026.1
20260510182415 21 68 6.4 16.1 0.00 0.00 0.00 21 1025.8
20260510181416 20 112 11.3 14.5 0.00 0.00 0.00 22 1026.2
20260510180436 20 124 4.8 14.5 0.00 0.00 0.00 25 1026.4
20260510175416 20 105 4.8 16.1 0.00 0.00 0.00 25 1026.0
20260510174456 20 144 6.4 12.9 0.00 0.00 0.00 27 1026.4
20260510173415 20 156 11.3 17.7 0.00 0.00 0.00 29 1026.5
20260510172415 20 157 6.4 11.3 0.00 0.00 0.00 28 1026.5
20260510171456 19 107 6.4 14.5 0.00 0.00 0.00 30 1026.2
20260510170415 18 82 3.2 4.8 0.00 0.00 0.00 32 1025.9
20260510165416 18 149 8.0 11.3 0.00 0.00 0.00 33 1025.9
20260510164415 18 91 9.7 17.7 0.00 0.00 0.00 33 1026.2
20260510163415 18 111 8.0 12.9 0.00 0.00 0.00 35 1025.9
20260510162415 18 148 6.4 12.9 0.00 0.00 0.00 31 1026.1
20260510161415 18 174 0.0 3.2 0.00 0.00 0.00 27 1026.0
20260510160416 18 138 3.2 4.8 0.00 0.00 0.00 27 1026.0
20260510155415 17 147 4.8 9.7 0.00 0.00 0.00 27 1025.7
20260510154435 17 275 0.0 3.2 0.00 0.00 0.00 27 1025.7
20260510153415 17 168 3.2 6.4 0.00 0.00 0.00 27 1025.9
20260510152415 16 238 1.6 3.2 0.00 0.00 0.00 30 1025.9
20260510151415 16 115 3.2 4.8 0.00 0.00 0.00 32 1026.2
20260510150415 15 167 3.2 8.0 0.00 0.00 0.00 34 1025.9
20260510145435 15 216 3.2 6.4 0.00 0.00 0.00 36 1025.8
20260510144415 15 163 1.6 3.2 0.00 0.00 0.00 36 1025.7
20260510143436 14 158 1.6 3.2 0.00 0.00 0.00 35 1025.7
20260510142416 14 0.0 0.0 0.00 0.00 0.00 36 1025.6
20260510141458 14 134 4.8 11.3 0.00 0.00 0.00 34 1025.5
20260510140416 14 30 1.6 4.8 0.00 0.00 0.00 36 1025.4
20260510135415 13 70 3.2 4.8 0.00 0.00 0.00 41 1025.1
20260510134457 12 70 1.6 3.2 0.00 0.00 0.00 44 1025.5
20260510133416 12 70 3.2 4.8 0.00 0.00 0.00 41 1025.1
20260510132416 11 70 4.8 6.4 0.00 0.00 0.00 40 1024.5
20260510131416 10 0.0 0.0 0.00 0.00 0.00 41 1024.0
20260510130457 9 0.0 0.0 0.00 0.00 0.00 41 1023.7
20260510125436 10 342 0.0 1.6 0.00 0.00 0.00 41 1023.7
20260510124418 10 342 6.4 9.7 0.00 0.00 0.00 36 1023.8
20260510123438 10 342 0.0 1.6 0.00 0.00 0.00 38 1023.7
20260510122417 10 342 0.0 1.6 0.00 0.00 0.00 38 1023.5
20260510121417 11 342 6.4 8.0 0.00 0.00 0.00 38 1023.8
20260510120417 10 342 6.4 8.0 0.00 0.00 0.00 37 1023.6
20260510115417 10 342 6.4 8.0 0.00 0.00 0.00 35 1023.5
20260510114417 11 342 4.8 6.4 0.00 0.00 0.00 32 1023.3
20260510113457 11 342 4.8 8.0 0.00 0.00 0.00 31 1023.5
20260510112417 11 342 6.4 8.0 0.00 0.00 0.00 33 1023.1
20260510111417 10 342 6.4 9.7 0.00 0.00 0.00 33 1023.1
20260510110437 11 342 6.4 8.0 0.00 0.00 0.00 33 1023.2
20260510105417 11 342 4.8 6.4 0.00 0.00 0.00 33 1023.0
20260510104416 11 342 6.4 8.0 0.00 0.00 0.00 33 1023.2
20260510103417 10 342 1.6 3.2 0.00 0.00 0.00 33 1022.9
20260510102416 10 342 1.6 3.2 0.00 0.00 0.00 34 1022.9
20260510101417 10 342 4.8 6.4 0.00 0.00 0.00 34 1022.8
20260510100416 11 342 6.4 8.0 0.00 0.00 0.00 34 1022.8
20260510095416 10 342 6.4 9.7 0.00 0.00 0.00 34 1022.6
20260510094416 10 342 4.8 6.4 0.00 0.00 0.00 33 1022.6
20260510093416 11 342 6.4 8.0 0.00 0.00 0.00 32 1022.5
20260510092416 10 342 4.8 8.0 0.00 0.00 0.00 34 1022.1
20260510091416 10 342 4.8 6.4 0.00 0.00 0.00 34 1022.4
20260510090417 11 342 3.2 4.8 0.00 0.00 0.00 32 1022.6
20260510085416 11 342 3.2 6.4 0.00 0.00 0.00 31 1022.5
20260510084417 11 333 1.6 4.8 0.00 0.00 0.00 30 1022.4
20260510083416 12 333 0.0 1.6 0.00 0.00 0.00 29 1022.4
20260510082437 12 356 3.2 12.9 0.00 0.00 0.00 28 1022.4
20260510081416 14 245 1.6 4.8 0.00 0.00 0.00 26 1022.5
20260510080457 15 207 0.0 1.6 0.00 0.00 0.00 23 1023.1
20260510075416 16 343 12.9 19.3 0.00 0.00 0.00 20 1023.2
20260510074416 16 355 12.9 17.7 0.00 0.00 0.00 21 1022.8
20260510073416 16 349 11.3 16.1 0.00 0.00 0.00 21 1022.9
20260510072416 15 332 9.7 14.5 0.00 0.00 0.00 22 1022.9
20260510071416 15 321 9.7 16.1 0.00 0.00 0.00 24 1022.5
20260510070416 13 315 12.9 17.7 0.00 0.00 0.00 25 1022.1
20260510065436 13 312 16.1 19.3 0.00 0.00 0.00 25 1022.0
20260510064416 14 316 17.7 20.9 0.00 0.00 0.00 24 1021.9
20260510063416 14 314 14.5 17.7 0.00 0.00 0.00 23 1021.7
20260510062416 14 310 16.1 19.3 0.00 0.00 0.00 23 1021.6
20260510061416 14 311 12.9 16.1 0.00 0.00 0.00 24 1021.3
20260510060416 14 305 12.9 19.3 0.00 0.00 0.00 24 1021.1
20260510055435 15 308 12.9 16.1 0.00 0.00 0.00 23 1021.4
20260510054415 15 314 14.5 17.7 0.00 0.00 0.00 23 1021.2
20260510053415 15 314 14.5 19.3 0.00 0.00 0.00 22 1021.1
20260510052415 15 324 12.9 17.7 0.00 0.00 0.00 21 1021.1
20260510051415 15 338 9.7 12.9 0.00 0.00 0.00 21 1020.9
20260510050415 15 330 8.0 12.9 0.00 0.00 0.00 22 1020.5
20260510045415 15 319 9.7 14.5 0.00 0.00 0.00 22 1020.6
20260510044415 15 311 11.3 14.5 0.00 0.00 0.00 22 1020.4
20260510043415 15 311 11.3 14.5 0.00 0.00 0.00 22 1020.3
20260510042415 15 328 9.7 12.9 0.00 0.00 0.00 21 1020.3
20260510041415 15 313 9.7 12.9 0.00 0.00 0.00 22 1020.3
20260510040415 16 326 19.3 24.1 0.00 0.00 0.00 22 1020.4
20260510035415 16 318 12.9 16.1 0.00 0.00 0.00 22 1020.4
20260510034435 16 314 8.0 12.9 0.00 0.00 0.00 21 1020.2
20260510033415 16 312 11.3 16.1 0.00 0.00 0.00 20 1020.2
20260510032415 16 309 9.7 12.9 0.00 0.00 0.00 20 1020.1
20260510031435 16 312 12.9 17.7 0.00 0.00 0.00 20 1020.0
20260510030415 17 326 6.4 9.7 0.00 0.00 0.00 20 1019.7
20260510025417 18 355 4.8 6.4 0.00 0.00 0.00 17 1020.0
20260510024415 18 348 6.4 8.0 0.00 0.00 0.00 17 1019.9
20260510023417 18 11 6.4 11.3 0.00 0.00 0.00 17 1019.8
20260510022455 18 355 3.2 4.8 0.00 0.00 0.00 17 1020.1
20260510021417 18 36 4.8 8.0 0.00 0.00 0.00 16 1019.6
20260510020538 18 22 6.4 12.9 0.00 0.00 0.00 16 1019.6
20260510015417 19 34 6.4 9.7 0.00 0.00 0.00 17 1019.4
20260510014417 20 43 6.4 9.7 0.00 0.00 0.00 17 1019.4
20260510013417 20 45 9.7 14.5 0.00 0.00 0.00 16 1019.3
20260510012417 20 37 12.9 19.3 0.00 0.00 0.00 15 1019.5
20260510011417 20 50 8.0 12.9 0.00 0.00 0.00 15 1019.8
20260510010437 20 30 8.0 14.5 0.00 0.00 0.00 15 1019.8
20260510005417 20 358 17.7 22.5 0.00 0.00 0.00 16 1019.8
20260510004417 21 14 12.9 20.9 0.00 0.00 0.00 15 1019.8
20260510003417 21 40 11.3 19.3 0.00 0.00 0.00 15 1019.8
20260510002417 21 347 11.3 19.3 0.00 0.00 0.00 16 1019.8
20260510001416 21 39 16.1 20.9 0.00 0.00 0.00 15 1020.1
20260510000418 21 27 11.3 25.7 0.00 0.00 0.00 15 1020.1
20260509235417 21 46 16.1 22.5 0.00 0.00 0.00 15 1020.0
20260509234417 21 26 19.3 29.0 0.00 0.00 0.00 15 1020.1
20260509233437 21 50 17.7 24.1 0.00 0.00 0.00 15 1020.0
20260509232416 21 12 16.1 24.1 0.00 0.00 0.00 16 1020.0